This demonstration page uses our WeatherBlox Daily Observations layout. Learn more.

Left ArrowRight Arrow

Hourly Observations for January 31, 2016

Temp ( °F °C ) Dew Point ( °F °C ) Humidity (%) Winds ( mph kmh ) Pressure ( in mb ) Visibility ( mi km ) Precip ( " mm )
12:53 am 00:53 Clear 40 4.4 36 2.2 86 86 Calm 30.07 1018 10 16 0.00 0.00
1:53 am 01:53 Clear 40 4.4 35 1.7 83 83 Calm 30.06 1018 10 16 0.00 0.00
2:53 am 02:53 Clear 39 3.9 35 1.7 86 86 Calm 30.06 1018 10 16 0.00 0.00
3:53 am 03:53 Clear 37 2.8 34 1.1 89 89 Calm 30.06 1018 10 16 0.00 0.00
4:53 am 04:53 Partly Cloudy 37 2.8 34 1.1 89 89 NE 3 6 30.06 1018 10 16 0.00 0.00
5:07 am 05:07 Mostly Cloudy 38 3.3 35 1.7 89 89 Calm 30.15 1021 10 16 0.00 0.00
5:53 am 05:53 Cloudy 41 5 37 2.8 86 86 Calm 30.08 1019 10 16 0.00 0.00
6:53 am 06:53 Cloudy 43 6.1 38 3.3 82 82 Calm 30.09 1019 10 16 0.00 0.00
7:53 am 07:53 Cloudy 45 7.2 40 4.4 83 83 Calm 30.11 1020 10 16 0.00 0.00
8:53 am 08:53 Cloudy 47 8.3 42 5.6 83 83 Calm 30.11 1020 10 16 0.00 0.00
9:01 am 09:01 Cloudy 47 8.3 42 5.6 83 83 Calm 30.15 1021 10 16 0.00 0.00
9:53 am 09:53 Cloudy 51 10.6 46 7.8 83 83 S 3 6 30.11 1020 10 16 0.00 0.00
10:53 am 10:53 Cloudy 53 11.7 47 8.3 80 80 Calm 30.11 1020 10 16 0.00 0.00
11:53 am 11:53 Cloudy 57 13.9 48 8.9 72 72 Calm 30.09 1019 10 16 0.00 0.00
12:53 pm 12:53 Cloudy 60 15.6 49 9.4 67 67 SSE 5 7 30.05 1018 10 16 0.00 0.00
1:53 pm 13:53 Cloudy 64 17.8 51 10.6 63 63 S 6 9 30.01 1016 10 16 0.00 0.00
2:53 pm 14:53 Mostly Cloudy 68 20 51 10.6 55 55 S 9 15 29.98 1015 10 16 0.00 0.00
3:53 pm 15:53 Partly Cloudy 67 19.4 51 10.6 57 57 SW 6 9 29.98 1015 10 16 0.00 0.00
4:53 pm 16:53 Mostly Cloudy 67 19.4 50 10 55 55 SSW 7 11 29.98 1015 10 16 0.00 0.00
5:53 pm 17:53 Mostly Cloudy 66 18.9 50 10 56 56 S 7 11 29.98 1015 10 16 0.00 0.00
6:53 pm 18:53 Clear 62 16.7 50 10 65 65 SSE 6 9 29.98 1015 10 16 0.00 0.00
7:53 pm 19:53 Clear 62 16.7 51 10.6 67 67 S 6 9 29.98 1015 10 16 0.00 0.00
8:53 pm 20:53 Clear 61 16.1 51 10.6 70 70 SSW 6 9 29.98 1015 10 16 0.00 0.00
9:53 pm 21:53 Cloudy 60 15.6 52 11.1 75 75 SSW 7 11 29.98 1015 10 16 0.00 0.00
10:31 pm 22:31 Cloudy 60 15.6 52 11.1 75 75 S 7 11 30.00 1016 10 16 0.00 0.00
10:53 pm 22:53 Cloudy 60 15.6 52 11.1 75 75 S 5 7 29.99 1016 10 16 0.00 0.00
11:29 pm 23:29 Cloudy 60 15.6 52 11.1 75 75 S 7 11 30.00 1016 10 16 0.00 0.00
11:53 pm 23:53 Cloudy 60 15.6 52 11.1 75 75 S 8 13 30.00 1016 10 16 0.00 0.00

Powered by AerisWeather